Regional Weather Roundup
Issued by NWS

Home | Current Version | Previous Version | Graphics & Text | Print | Product List | Glossary On
Versions: 1 2 3 4 5 6 7 8 9 10 11 12 13 14 15 16 17 18 19 20 21 22 23 24 25 26 27 28 29 30 31 32 33 34 35 36 37 38 39 40 41 42 43 44 45 46 47 48 49 50
000
ASUS43 KLMK 260702
RWRKY
KENTUCKY REGIONAL WEATHER ROUNDUP
NATIONAL WEATHER SERVICE LOUISVILLE KY
300 AM EDT SAT MAY 26 2018

NOTE "FAIR" INDICATES FEW OR NO CLOUDS BELOW 12,000 FEET
WITH NO SIGNIFICANT WEATHER AND/OR OBSTRUCTIONS TO VISIBILITY.

KYZ001>023-026-027-061>063-070>075-260800-
WESTERN AND SOUTH CENTRAL KENTUCKY

CITY           SKY/WX    TMP DP  RH WIND       PRES   REMARKS
PADUCAH        FAIR      71  68  90 SW3       29.85F
HENDERSON      NOT AVBL
OWENSBORO      FAIR      71  69  93 S5        29.87F
HOPKINSVILLE   CLOUDY    71  71  99 S6        29.87F
BOWLING GREEN  FAIR      74  69  85 S6        29.89F
GLASGOW        NOT AVBL
$$

KYZ024-025-028>034-038-045-046-053-260800-
NORTH CENTRAL KENTUCKY

CITY           SKY/WX    TMP DP  RH WIND       PRES   REMARKS
LOUISVILLE/SDF MOCLDY    75  65  70 W6        29.86F
LOUISVILLE/LOU FAIR      72  65  78 SW3       29.87F
FORT KNOX      MOCLDY    71  67  88 SW5       29.88S
$$

KYZ035>037-039>044-047>052-055>060-089>105-260800-
NORTHEAST KENTUCKY

CITY           SKY/WX    TMP DP  RH WIND       PRES   REMARKS
LEXINGTON      FAIR      70  63  78 S6        29.89F
COVINGTON      MOCLDY    68  60  75 SW5       29.86F
FRANKFORT      FAIR      67  62  84 SW3       29.87F
$$

KYZ054-064>069-076>088-106>120-260800-
SOUTHEAST KENTUCKY

CITY           SKY/WX    TMP DP  RH WIND       PRES   REMARKS
JACKSON        FAIR      71  65  81 CALM      29.92F
LONDON         FAIR      69  65  86 CALM      29.93S
SOMERSET       NOT AVBL
MIDDLESBORO    FAIR      67  67  99 CALM      29.95S
MONTICELLO     FAIR      68  65  90 NE7       29.95R
$$





USA.gov is the U.S. government's official web portal to all federal, state and local government web resources and services.